www.pogodaiklimat.ru

Погода и климат >> Архив погоды >> Россия >> Приморский край >> Хороль


ПОГОДА в Хороле

  • Прогноз погоды в Хороле
  • Монитор погоды в Хороле

АРХИВ ПОГОДЫ в Хороле

Время (UTC), дата Ветер
(напр.,м/с)
 
Видим.   Явления Облачность Т
(С)
Тd
(С)
f
(%)
Тe
(С)
Тes
(С)
Комфортность P
(гПа)
Po
(гПа)
Тmin
(С)
Tmax
(С)
R
(мм)
R24
(мм)
S
(см)
15 11.04 ЮЗ 1 20 км ясно +3.0 -10.6 36 +2 +2 1013.1 997.3
18 11.04 З 2 н/о н/о +4.8 -9.0 36 +3 1012.9 997.3
21 11.04 З 1 50 км ясно +2.4 -8.0 46 +2 +2 1013.0 997.1 +2.4
00 12.04 З 2
{5}
н/о н/о +11.6 -7.8 25 +11 +11 1013.3 997.9 +2.3
03 12.04 ЮЗ 2 50 км 2 балла +14.7 -9.4 18 +15 +27 опасность
простуды
1013.8 998.7
06 12.04 Ю 2 н/о н/о +16.4 -11.2 14 +17 1011.0 996.0
09 12.04 Ю 3 50 км ясно +14.9 -7.9 20 +15 +15 1011.1 996.0 +16.9
12 12.04 Ю 4
{10}
н/о н/о +9.2 -8.4 28 +7 1014.1 998.7
15 12.04 Ю 5 20 км 2 балла +8.0 -8.1 31 +5 +5 1014.2 998.7
18 12.04 Ю 5
{11}
н/о н/о +7.0 -7.4 35 +4 1012.8 997.3
21 12.04 ЮЗ 8-14
{14}
50 км 5/0
[Ac trans]
+6.4 -2.4 53 +2 +2 1012.1 996.5 +6.4
00 13.04 Ю 6-11
{14}
н/о н/о +10.2 +0.4 51 +7 +7 1011.2 995.9 +5.5
03 13.04 ЮЗ 6-10
{13}
50 км 8/0
[Cc]
+15.3 +1.0 38 +14 +19 1010.0 994.9
06 13.04 Ю 5
{12}
н/о н/о +16.9 +0.5 33 +16 1008.2 993.3
09 13.04 СЗ 3
{12}
50 км {ливн. осадки} 10/4 600 м
[Sc diur, vesp Ac cuf Ci ing]
+9.8 +3.5 65 +8 +8 1012.6 997.3 +17.5 0.6
12 13.04 З 3
{13}
н/о н/о +8.3 +3.2 70 +6 1015.5 1000.0
15 13.04 СЗ 3 50 км 2 балла +6.0 +1.7 74 +3 +3 1015.6 1000.0
18 13.04 В 3 н/о н/о +3.6 +0.8 82 -0 1017.1 1001.3
21 13.04 штиль 0 50 км 10/10 600 м
[Sc]
+2.8 -0.5 79 +2 +2 1015.1 999.2 +2.8
00 14.04 С 2
{9}
н/о н/о +4.6 -0.6 69 +2 +2 1014.4 998.7 +2.7
03 14.04 СВ 3 50 км 10 баллов +7.0 -1.9 53 +5 +5 1012.8 997.3
06 14.04 СВ 2 н/о н/о +7.1 +0.1 61 +5 1011.5 996.0
09 14.04 СВ 2 50 км 8/0
[Ci sp]
+6.0 -4.5 47 +4 +4 1011.6 996.0 +7.6
12 14.04 С 2
{6}
н/о н/о +2.4 -3.3 66 -0 1011.8 996.0
15 14.04 СЗ 3 50 км 1 балл +1.3 -8.0 50 -2 -2 1011.8 996.0
18 14.04 СЗ 3 н/о н/о +0.7 -7.8 53 -3 1011.9 996.0
21 14.04 З 2 50 км 3/0
[Ci sp]
+0.6 -8.5 50 -2 -2 1011.4 995.5 +0.4
00 15.04 СВ 1
{5}
н/о н/о +8.2 -8.7 29 +8 +8 1011.6 996.1
03 15.04 СВ 2 50 км ясно +12.8 -5.7 27 +13 +28 опасность
простуды
1011.2 996.0
06 15.04 ЮВ 3 н/о н/о +14.7 -4.1 27 +14 1009.8 994.7
09 15.04 ЮВ 4 50 км ясно +14.3 -4.0 28 +13 +14 1008.4 993.3 +15.6
12 15.04 Ю 5
{10}
н/о н/о +9.5 -7.2 30 +7 1010.0 994.7
15 15.04 Ю 4
{11}
50 км ясно +7.2 -8.8 31 +5 +5 1010.2 994.7
18 15.04 Ю 5
{12}
н/о н/о +6.0 -5.6 43 +2 1010.2 994.7
21 15.04 Ю 6-12
{13}
50 км ясно +6.6 -0.1 62 +2 +3 1007.0 991.5 +5.8
00 16.04 Ю 8-12
{16}
н/о н/о +10.0 +2.8 61 +6 +6 1006.7 991.3
03 16.04 Ю 7-13
{15}
50 км 3/0
[Ci fib]
+16.7 +1.7 36 +16 +20 1004.5 989.6
06 16.04 Ю 6
{13}
н/о н/о +21.1 +2.4 29 +21 1002.6 988.0
09 16.04 Ю 6
{13}
50 км 8/0
[Cc]
+17.2 +0.4 32 +16 +17 1002.8 988.0 +21.4
12 16.04 ЮЗ 6
{12}
н/о н/о +13.5 -1.5 35 +12 +12 1004.5 989.4
15 16.04 ЮЗ 4 50 км ясно +11.0 -2.4 39 +9 +9 1005.9 990.7
18 16.04 Ю 5 н/о н/о +8.4 -0.1 55 +5 1006.0 990.7
21 16.04 Ю 4 50 км 3/0
[Ci sp]
+7.6 +1.0 63 +5 +5 1007.4 992.0 +7.4
00 17.04 ЮЗ 4
{11}
н/о н/о +16.5 -1.1 30 +16 +16 1005.7 990.7
03 17.04 Ю 5 50 км 2 балла +20.6 -0.7 24 +21 +27 комфорт 1004.0 989.3
06 17.04 Ю 6
{12}
н/о н/о +23.5 -4.6 15 +22 1001.2 986.7
09 17.04 Ю 7-13
{13}
50 км 8/0
[Ac lent Cc]
+19.6 -5.4 18 +19 +19 1000.0 985.3 +24.1
12 17.04 Ю 9-15
{17}
н/о н/о +14.1 -6.0 24 +12 +12 999.7 984.7
15 17.04 Ю 9-15
{16}
50 км 10/0
[As op]
+11.9 -2.9 35 +9 +9 997.6 982.5
18 17.04 Ю 6
{16}
н/о н/о +9.6 +1.0 55 +6 997.8 982.7
21 17.04 Ю 5-10
{12}
50 км 9/6 600 м
[Sc Ci sp]
+10.6 +1.4 53 +8 +8 997.8 982.7 +9.2
00 18.04 ЮЗ 3
{16}
н/о н/о +12.8 +2.4 49 +12 +12 1000.3 985.3
03 18.04 З 9-15
{18}
50 км 4/4 600 м
[Sc]
+9.5 -5.2 35 +6 +7 1004.6 989.3
06 18.04 СЗ 8
{16}
н/о н/о +8.2 -7.5 32 +4 1007.4 992.0
09 18.04 СЗ 7-11
{16}
50 км 8/8 600 м
[Sc]
+5.5 -7.3 39 +1 +1 1011.6 996.0 +12.8
12 18.04 ЮЗ 1
{12}
н/о н/о +1.7 -6.7 54 +1 +1 1013.6 997.7

 

Местоположение метеостанции Хороль (Приморский край, Россия): широта 44.43 долгота 132.00 высота над уровнем моря 127 м.

В архиве по умолчанию представлена погода в Хороле за последнюю неделю. Архивные данные за месяц целиком и за предыдущие месяцы, начиная с января 2011 года, Вы можете получить, выбрав интересующий диапазон дат из раскрывающегося списка и нажав кнопку "Ввод!".


*Определитесь, кто Вы:
робот инопланетянин человек

Внимание! Время в таблицах - всемирное. Для получения местного времени необходимо прибавить поправку, которая равна 10 ч.

Смотрите также архив погоды в соседних городах и на ближайших метеорологических станциях:

Погода в Астраханке (Приморский край, Россия) (32 км)
Погода в Пограничном (Приморский край, Россия) (56 км)
Погода в Тимирязевском (Приморский край, Россия) (62 км)
Погода в Спасск-Дальнем (Приморский край, Россия) (67 км)
Погода в Суйфэньхэ (Хэйлунцзян, Китай) (68 км)
Погода в Полтавке (Приморский край, Россия) (71 км)
Погода в Турьем Роге (Приморский край, Россия) (87 км)
Погода в Свиягино (Приморский край, Россия) (89 км)
Погода в Анучино (Приморский край, Россия) (95 км)
Погода в Многоудобном (Приморский край, Россия) (113 км)

Пояснения к столбцам:

Ветер - указаны скорость ветра в м/с - средняя за 10 мин, порывы в срок и между сроками (в фигурных скобках) и направление, откуда дует ветер: С - северный, СВ - северо-восточный, В - восточный, ЮВ - юго-восточный, Ю - южный, ЮЗ - юго-западный, З - западный, СЗ - северо-западный.
Видимость - горизонтальная дальность видимости в метрах или километрах. При видимости от 1 до 10 км при отсутствии осадков обычно наблюдается дымка, при ухудшении видимости до 1 км и менее - туман. В сухую погоду видимость может ухудшаться дымом, пылью или мглою.
Явления - указаны атмосферные явления, наблюдавшиеся в срок или в последний час перед сроком; фигурными скобками обозначены явления, наблюдавшиеся между сроками (за 1-3 часа до срока); квадратными скобками обозначены град или гололедные отложения с указанием их диаметра в мм.
Облачность - указаны через наклонную черту общая и нижняя облачность в баллах и высота нижней границы облаков в метрах; квадратными скобками обозначены формы облаков: Ci - перистые, Cs - перисто-слоистые, Cc - перисто-кучевые, Ac - высококучевые, As - высокослоистые, Sc - слоисто-кучевые, Ns - слоисто-дождевые, Cu - кучевые, Cb - кучево-дождевые. Подробнее классификацию облаков см. в Атласе облаков (PDF).
T - Температура воздуха - температура, измеренная на высоте 2 м над землей.
Td - Температура точки росы - температура, при понижении до которой содержащийся в воздухе водяной пар достигнет насыщения.
f - Относительная влажность воздуха - влажноcть воздуха, измеренная на высоте 2 м над землей.
Te - Эффективная температура - температура, которую ощущает одетый по сезону человек в тени. Характеристика душности погоды. При расчете учитывается влияние влажности воздуха и скорости ветра на теплоощущения человека.
Tes - Эффективная температура на солнце - температура, которую ощущает человек, с поправкой на солнечный нагрев. Характеристика знойности погоды. Зависит от высоты солнца над горизонтом, облачности и скорости ветра. Ночью, в пасмурную погоду, а также при ветре 12 м/с и более поправка равна нулю.
P - Атмосферное давление - приведенное к уровню моря атмосферное давление.
Po - Атмосферное давление - измеренное на уровне метеостанции атмосферное давление.
Tmin - Минимальная температура - минимум температуры воздуха на высоте 2 м над землей.
Tmax - Максимальная температура - максимум температуры воздуха на высоте 2 м над землей.
R - Количество осадков - Количество выпавших осадков за период времени, мм. При наведении курсора мыши на число - период времени, за который выпало указанное количество осадков.
R24 - Количество осадков - Количество выпавших осадков за 24 часа, мм.
S - Снежный покров - Высота снежного покрова, см. При наведении курсора мыши на число - состояние снежного покрова и степень покрытия местности в баллах.